Regional Weather Roundup
Issued by NWS

Home | Current Version | Previous Version | Text Only | Print | Product List | Glossary On
Versions: 1 2 3 4 5 6 7 8 9 10 11 12 13 14 15 16 17 18 19 20 21 22 23 24 25 26 27
000
ASUS42 KTBW 270317
RWRFL
FLORIDA REGIONAL WEATHER ROUNDUP
NATIONAL WEATHER SERVICE TAMPA BAY RUSKIN FL
1100 PM EDT SAT MAY 26 2018

NOTE: "FAIR" INDICATES FEW OR NO CLOUDS BELOW 12,000 FEET WITH NO
SIGNIFICANT WEATHER AND/OR OBSTRUCTIONS TO VISIBILITY.

FLZ001>010-012>015-112-114-115-270400-
PANHANDLE FLORIDA

CITY           SKY/WX    TMP DP  RH WIND       PRES   REMARKS
PENSACOLA      FAIR      78  68  71 SE10      29.88R
PENSACOLA NAS  FAIR      79  68  69 SE10      29.88R
MILTON NAS     CLOUDY    72  71  97 E3        29.90R
CRESTVIEW      FAIR      71  69  93 CALM      29.92R FOG
DUKE FIELD     FAIR      71  71  99 CALM      29.90R
VALPARAISO     MOCLDY    76  68  77 SE3       29.89R
MARY ESTHER    MOCLDY    77  70  78 CALM      29.88R
TRI COUNTY     FAIR      73  72  96 CALM      29.91R
PANAMA CITY    FAIR      74  71  91 CALM      29.88R
TYNDALL AFB    FAIR      73  70  89 CALM      29.88R
APALACHICOLA   FAIR      75  72  90 NE5       29.87R

STATION/POSITION SKY/WX   TEMP    WIND        PRES    WAVE   SWELL
                          AIR SEA DIR/SP/G            HT/PER HT/PER
                          (F)     (DEG/KT/KT) (MB)    (FT/S) (FT/S)
30.1N   87.6W              79     130/ 12/ 16 1011.4R   4/ 5   2/ 8
29.2N   88.2W                 82  130/ 12/ 14 1010.9
28.8N   86.0W              77 80  130/ 16/ 17 1010.0R   6/ 7   3/16
PANAMA CITY BEAC           77 82   60/  3/  5 1012.3R
TOWER C                    76     130/  7/  8 1011.6R

$$
FLZ011-016>038-118-127-128-134-139-239-270400-
NORTH FLORIDA

CITY           SKY/WX    TMP DP  RH WIND       PRES   REMARKS
MARIANNA       FAIR      76  74  93 N3        29.89R
TALLAHASSEE    MOCLDY    75  71  87 E3        29.88S
PERRY          FAIR      76  73  90 CALM      29.90S
LIVE OAK       CLEAR     75  70  83 CALM      29.92S
CROSS CITY     FAIR      76  71  83 E3        29.89S
LAKE CITY      FAIR      73  68  83 E5        29.92S
GAINESVILLE    FAIR      77  68  73 E7        29.94R
WILLISTON      CLEAR     77  70  78 VRB5      29.91R
PALATKA        MOCLDY    73  72  94 SE6       29.93S
MAYPORT NAS    FAIR      78  71  79 SE10      29.93S
JACKSONVILLE   CLOUDY    78  70  76 SE9       29.92S
JAX NAS        CLOUDY    79  71  76 SE9       29.93S
JAX CECIL      NOT AVBL
FERNANDINA BEA FAIR      78  71  78 SE9       29.93S
ST AUGUSTINE   FAIR      77  71  82 SE15G22   29.93S
PALM COAST     FAIR      73  71  94 CALM      29.93S

STATION/POSITION SKY/WX   TEMP    WIND        PRES    WAVE   SWELL
                          AIR SEA DIR/SP/G            HT/PER HT/PER
                          (F)     (DEG/KT/KT) (MB)    (FT/S) (FT/S)
SHELL POINT      NOT AVBL
KEATON BEACH               76      60/  5/  6 1012.2R
CEDAR KEY                  78     120/ 18/ 18 1012.3R
FERNANDINA                 79 79  140/  3/  8 1014.7R
30.7N   81.3W                 78                N/A     3/ 9
MAYPORT                    78 79  130/  6/  9 1013.9S
31.4N   80.9W              77 77  130/  8/ 10 1014.5R   2/ 9   2/ 9
ST AUGUSTINE               78 79  150/ 14/ 15 1013.5R

$$
FLZ040-043>046-052-053-057-058-063-144-270400-
INTERIOR CENTRAL FLORIDA

CITY           SKY/WX    TMP DP  RH WIND       PRES   REMARKS
OCALA          CLOUDY    75  68  78 VRB6      29.92R
LEESBURG       CLOUDY    73  71  93 E7        29.91S
SANFORD        CLOUDY    73  70  90 SE7       29.91S
ORLANDO EXEC   MOCLDY    72  68  87 SE13      29.91S
ORLANDO INTL   CLOUDY    72  66  81 SE14      29.91S
KISSIMMEE      CLOUDY    72  67  84 SE10      29.92R
WINTER HAVEN   CLOUDY    70  68  93 E13       29.91S
BARTOW         CLOUDY    68  68 100 E10       29.90S
SEBRING        CLOUDY    72  68  89 E10       29.88S
OKEECHOBEE     MOCLDY    70  68  94 E3        29.88S

$$
FLZ041-047-054-059-064-141-147-270400-
EAST CENTRAL FLORIDA

CITY           SKY/WX    TMP DP  RH WIND       PRES   REMARKS
DAYTONA BEACH  CLOUDY    73  72  96 VRB5      29.92S
DELAND         FAIR      72  70  94 SE6       29.92S
JFK SPACE CTR  MOCLDY    74  70  86 SE10      29.91S
CAPE CANAVERAL FAIR      75  66  75 SE16      29.90S
PATRICK AFB    FAIR      74  73  98 SE21      29.90F
MELBOURNE      LGT RAIN  74  70  87 SE13      29.91S
VERO BEACH     MOCLDY    75  71  87 SE14      29.89S
FT PIERCE      CLOUDY    75  72  90 SE15      29.89R

STATION/POSITION SKY/WX   TEMP    WIND        PRES    WAVE   SWELL
                          AIR SEA DIR/SP/G            HT/PER HT/PER
                          (F)     (DEG/KT/KT) (MB)    (FT/S) (FT/S)
28.5N   80.2W              77 78  140/ 19/ 23 1013.1
28.9N   78.5W              78 78  150/ 14/ 19 1014.9R   4/ 6   2/ 9
TRIDENT PIER               74 81  120/  9/ 17 1014.4S
28.4N   80.5W                 78                N/A     5/ 6
27.5N   80.2W                 76                N/A     6/ 6

$$
FLZ050-056-061-142-242-148-248-149-249-151-251-155-255-
160-260-270400-
WEST CENTRAL FLORIDA

CITY           SKY/WX    TMP DP  RH WIND       PRES   REMARKS
CRYSTAL RIVER  FAIR      73  68  83 E6        29.90R
INVERNESS      FAIR      72  70  94 CALM      29.91S
BROOKSVILLE    FAIR      72  68  87 E6        29.90R
CLEARWATER AIR CLOUDY    70  68  94 E8        29.86F
ST PETE CLEARW CLOUDY    71  71 100 E13       29.86F
TAMPA INTL     MOCLDY    73  67  81 E10G18    29.88S
TAMPA EXEC     CLOUDY    72  70  94 E3        29.89S
MACDILL AFB    MOCLDY    71  69  92 E12       29.87S
PETER O KNIGHT CLOUDY   N/A N/A N/A E10       29.88S
ST PETERSBURG  CLOUDY    73  70  90 E20       29.86S
SARASOTA       MOCLDY    69  67  93 E14       29.83F
VENICE         MOCLDY    70  68  94 E13       29.84S

STATION/POSITION SKY/WX   TEMP    WIND        PRES    WAVE   SWELL
                          AIR SEA DIR/SP/G            HT/PER HT/PER
                          (F)     (DEG/KT/KT) (MB)    (FT/S) (FT/S)
27.3N   84.2W                 79                N/A     8/ 7
CLEARWATER BEACH           72 81   80/ 10/ 12 1011.2F
MIDDLE TAMPA BAY           72     110/ 18/ 23 1011.2F
VENICE                     69 80   80/ 10/ 14 1010.4S

$$
FLZ066-069-070-075>078-162-262-165-265-270400-
SOUTHWEST FLORIDA AND KEYS

CITY           SKY/WX    TMP DP  RH WIND       PRES   REMARKS
PUNTA GORDA    CLOUDY    70  66  87 E10       29.86R
FT MYERS       MOCLDY    70  69  97 E10       29.82S
SOUTHWEST INTL CLOUDY    70  70 100 E9        29.83S
NAPLES         CLOUDY    72  72 100 E14       29.80R
MARCO ISLAND   LGT RAIN  72  71  97 E13       29.81R
IMMOKALEE      MOCLDY    72  70  94 E10       29.84S
MARATHON       LGT RAIN  78  73  84 SE20G32   29.79R
KEY WEST NAS   LGT RAIN  76  74  93 SE24G32   29.76R
KEY WEST INTL  LGT RAIN  77  77 100 SE31G37   29.75S

STATION/POSITION SKY/WX   TEMP    WIND        PRES    WAVE   SWELL
                          AIR SEA DIR/SP/G            HT/PER HT/PER
                          (F)     (DEG/KT/KT) (MB)    (FT/S) (FT/S)
NAPLES                     73 79              1009.0R
26.0N   85.6W              77 83   80/ 17/ 23 1006.8
DRY TORTUGAS               79     140/ 28/ 31 1005.7R
SAND KEY                   78                 1006.8R
SOMBRERO KEY               78     100/ 26/ 31 1007.9R
LONG KEY                   77 78  140/ 24/ 29 1008.9R
MOLASSES REEF              78 80  130/ 25/ 27 1010.0F

$$
FLZ067-068-071>074-168-172>174-270400-
SOUTHEAST FLORIDA

CITY           SKY/WX    TMP DP  RH WIND       PRES   REMARKS
W PALM BEACH   MOCLDY    76  73  91 SE16G30   29.88R
BOCA RATON     MOCLDY    77  72  83 SE17G23   29.87R
FT LAUDER-EXEC CLOUDY    77  74  90 SE17G26   29.85R
FT LAUDERDALE  LGT RAIN  77  75  93 SE26      29.84R
POMPANO BEACH  MOCLDY    78  73  84 SE18G28   29.86R
PEMBROKE PINES CLOUDY    78  73  84 E16G24    29.86R
OPA LOCKA      LGT RAIN  77  73  87 SE16G24   29.85R
MIAMI          LGT RAIN  76  75  97 E17G25    29.85R
WEST KENDALL   LGT RAIN  76  73  91 E14       29.83F
HOMESTEAD      LGT RAIN  77  73  88 E17G23    29.83S

STATION/POSITION SKY/WX   TEMP    WIND        PRES    WAVE   SWELL
                          AIR SEA DIR/SP/G            HT/PER HT/PER
                          (F)     (DEG/KT/KT) (MB)    (FT/S) (FT/S)
PORT EVERGLADES            78     120/ 10/ 20 1010.9R
VIRGINIA KEY               78 79  100/ 14/ 21 1010.1R
LAKE WORTH                 78 77  140/ 20/ 27 1012.3R
FOWEY ROCKS                78 79  110/ 31/ 33 1010.6S
SETTLEMENT POINT           76     110/ 22/ 24 1012.6S

$$





USA.gov is the U.S. government's official web portal to all federal, state and local government web resources and services.